1373500832798,58.0087
1373500892798,57.9968
1373500952798,58.0220
1373501012798,57.8675
1373501072798,57.7379
1373501132798,57.8180
1373501192798,57.8845
1373501252798,57.9965
1373501312798,58.0697
1373501372798,58.1805
1373501432798,58.1803
1373501492798,57.9591
1373501552798,58.2010
1373501612798,58.0819
1373501672798,58.0617
1373501732798,58.0485
1373501792798,57.9962
1373501852798,58.0197
1373501912798,57.9741
1373501972798,58.0683
1373502032798,57.9324
1373502092798,58.1352
1373502152798,58.0713
1373502212798,57.9776
1373502272798,58.3079
1373502332798,58.3437
1373502392798,58.3259
1373502452798,58.2379
1373502512798,58.2721
1373502572798,58.2554
1373502632798,58.3356
1373502692798,58.3543
1373502752798,58.4670
1373502812798,58.4123
1373502872798,58.2738
1373502932798,58.2319
1373502992798,58.3232
1373503052798,58.3257
1373503112798,58.4356
1373503172798,58.2770
1373503232798,58.0922
1373503292798,58.3499
1373503352798,58.3138
1373503412798,58.4397
1373503472798,58.2026
1373503532798,58.3956
1373503592798,58.3338
1373503652798,58.4103
1373503712798,58.6153
1373503772798,58.5126
1373503832798,58.3426
1373503892798,58.5753
1373503952798,58.3647
1373504012798,58.4063
1373504072798,58.2814
1373504132798,58.3188
1373504192798,58.3391
1373504252798,58.0607
1373504312798,58.2912
1373504372798,58.2532
1373504432808,58.3170
1373504492808,58.3829
1373504552808,58.2394
1373504612808,58.0713
1373504672808,58.1365
1373504732808,58.0043
1373504792808,58.2312
1373504852808,58.0237
1373504912808,58.2184
1373504972808,58.0566
1373505032808,58.3401
1373505092808,58.2122
1373505152808,58.0985
1373505212808,57.8935
1373505272808,57.9503
1373505332808,57.9465
1373505392808,57.8708
1373505452808,57.9972
1373505512808,58.0237
1373505572808,58.0822
1373505632808,57.7872
1373505692808,58.1025
1373505752808,57.8490
1373505812808,58.0833
1373505872808,57.7862
1373505932808,58.0430
1373505992808,58.0780
1373506052808,57.9342
1373506112808,58.1720
1373506172808,58.1071
1373506232808,58.1591
1373506292808,57.8829
1373506352808,57.9345
1373506412808,57.8626
1373506472808,57.9565
1373506532808,57.8731
1373506592808,57.8959
1373506652808,57.9787
1373506712808,57.8613
1373506772808,57.9106
1373506832808,57.7641
1373506892808,57.8891
1373506952808,57.8169
1373507012808,57.9666
1373507072808,58.0828
1373507132808,57.8051
1373507192808,57.8689
1373507252808,57.9295
1373507312808,57.6920
1373507372808,58.0188
1373507432808,57.9292
1373507492808,57.8614
1373507552808,57.9113
1373507612808,57.7406
1373507672808,57.8210
1373507732808,58.0334
1373507792808,57.9794
1373507852808,58.1408
1373507912808,57.9773
1373507972808,57.9590
1373508032817,58.0230
1373508092817,58.0196
1373508152817,57.8599
1373508212817,58.0406
1373508272817,57.9222
1373508332817,57.9171
1373508392817,58.0703
1373508452817,58.1481
1373508512817,58.0407
1373508572817,58.0400
1373508632817,58.0416
1373508692817,57.8241
1373508752817,58.0555
1373508812817,58.0292
1373508872817,57.8668
1373508932817,57.9685
1373508992817,58.0364
1373509052817,58.0963
1373509112817,58.0111
1373509172817,58.1264
1373509232817,58.1609
1373509292817,57.9272
1373509352817,57.9469
1373509412817,58.1312
1373509472817,58.0366
1373509532817,58.1287
1373509592817,57.9207
1373509652817,58.0623
1373509712817,58.0757
1373509772817,58.1785
1373509832817,58.0672
1373509892817,58.0855
1373509952817,58.1550
1373510012817,58.0272
1373510072817,58.4080
1373510132817,58.1405
1373510192817,57.9942
1373510252817,58.3148
1373510312817,58.1785
1373510372817,58.2804
1373510432817,58.1710
1373510492817,58.4450
1373510552817,58.2638
1373510612817,58.1666
1373510672817,58.3064
1373510732817,58.3358
1373510792817,58.3529
1373510852817,58.4032
1373510912817,58.1332
1373510972817,58.3349
1373511032817,58.0756
1373511092817,58.3808
1373511152817,58.3564
1373511212817,58.4755
1373511272817,58.2959
1373511332817,58.2504
1373511392817,58.2798
1373511452817,58.3096
1373511512817,58.3013
1373511572817,58.1852
1373511632827,58.4146
1373511692827,58.2122
1373511752827,58.3550
1373511812827,58.2101
1373511872827,58.2239
1373511932827,58.2369
1373511992827,58.0748
1373512052827,58.3348
1373512112827,58.3542
1373512172827,58.2593
1373512232827,58.3461
1373512292827,58.3819
1373512352827,58.3754
1373512412827,58.3980
1373512472827,58.3229
1373512532827,58.3176
1373512592827,58.3129
1373512652827,58.1103
1373512712827,58.3141
1373512772827,58.3565
1373512832827,58.2769
1373512892827,58.2474
1373512952827,58.3733
1373513012827,58.2547
1373513072827,58.3537
1373513132827,58.3137
1373513192827,58.3182
1373513252827,58.2853
1373513312827,58.4426
1373513372827,58.2773
1373513432827,58.3373
1373513492827,58.3656
1373513552827,58.4213
1373513612827,58.3554
1373513672827,58.2245
1373513732827,58.4997
1373513792827,58.3061
1373513852827,58.3101
1373513912827,58.4108
1373513972827,58.2490
1373514032827,58.3147
1373514092827,58.3433
1373514152827,58.3896
1373514212827,58.1922
1373514272827,58.3694
1373514332827,58.1585
1373514392827,58.4140
1373514452827,58.3063
1373514512827,58.2855
1373514572827,58.2494
1373514632827,58.3933
1373514692827,58.2307
1373514752827,58.4754
1373514812827,58.6312
1373514872827,58.4198
1373514932827,58.2635
1373514992827,58.5435
1373515052827,58.3365
1373515112827,58.3627
1373515172827,58.2659
1373515232836,58.3152
1373515292836,58.1484
1373515352836,58.5488
1373515412836,58.2621
1373515472836,58.2223
1373515532836,58.2437
1373515592836,58.4531
1373515652836,58.3102
1373515712836,58.3783
1373515772836,58.2129
1373515832836,58.3216
1373515892836,58.4584
1373515952836,58.4910
1373516012836,58.2034
1373516072836,58.4288
1373516132836,58.3042
1373516192836,58.4551
1373516252836,58.1704
1373516312836,58.4968
1373516372836,58.6102
1373516432836,58.2192
1373516492836,58.1546
1373516552836,58.3185
1373516612836,58.2263
1373516672836,58.4163
1373516732836,58.2573
1373516792836,58.0978
1373516852836,58.5259
1373516912836,58.2556
1373516972836,58.2409
1373517032836,58.4847
1373517092836,58.1377
1373517152836,58.2495
1373517212836,58.2951
1373517272836,58.3468
1373517332836,58.2954
1373517392836,58.4383
1373517452836,58.2874
1373517512836,58.2735
1373517572836,58.1893
1373517632836,58.0782
1373517692836,58.2215
1373517752836,58.1806
1373517812836,58.1442
1373517872836,58.2724
1373517932836,58.2192
1373517992836,58.5426
1373518052836,58.3322
1373518112836,58.4238
1373518172836,58.4999
1373518232836,58.3068
1373518292836,58.5006
1373518352836,58.1041
1373518412836,58.2001
1373518472836,58.0249
1373518532836,58.2043
1373518592836,58.1172
1373518652836,58.3032
1373518712836,58.4633
1373518772836,58.2741
1373518832845,58.2951
1373518892845,58.2141
1373518952845,58.2550
1373519012845,58.3114
1373519072845,58.2855
1373519132845,58.1362
1373519192845,58.2677
1373519252845,58.2081
1373519312845,58.2273
1373519372845,58.3435
1373519432845,58.3203
1373519492845,58.5181
1373519552845,58.1811
1373519612845,58.2013
1373519672845,57.9963
1373519732845,58.2639
1373519792845,58.2052
1373519852845,58.1669
1373519912845,58.1215
1373519972845,58.1959
1373520032845,58.1888
1373520092845,58.3032
1373520152845,57.9962
1373520212845,58.2098
1373520272845,58.1638
1373520332845,58.1813
1373520392845,58.1580
1373520452845,58.3839
1373520512845,58.1937
1373520572845,58.1301
1373520632845,58.0707
1373520692845,58.1133
1373520752845,58.2183
1373520812845,58.3227
1373520872845,58.0543
1373520932845,58.0979
1373520992845,58.0334
1373521052845,58.1010
1373521112845,57.9592
1373521172845,58.0931
1373521232845,57.9255
1373521292845,58.1294
1373521352845,58.0299
1373521412845,57.9882
1373521472845,58.3275
1373521532845,57.8489
1373521592845,58.0531
1373521652845,57.8139
1373521712845,57.8815
1373521772845,57.9925
1373521832845,58.0644
1373521892845,58.0422
1373521952845,57.9883
1373522012845,57.9347
1373522072845,58.0803
1373522132845,57.8605
1373522192845,58.0476
1373522252845,57.9481
1373522312845,57.9609
1373522372845,58.0356
1373522432854,58.0150
1373522492854,58.1610
1373522552854,58.0398
1373522612854,58.0977
1373522672854,57.9008
1373522732854,58.1130
1373522792854,57.9900
1373522852854,57.8735
1373522912854,58.0202
1373522972854,58.1180
1373523032854,57.9464
1373523092854,57.9467
1373523152854,57.9003
1373523212854,58.1234
1373523272854,58.1200
1373523332854,57.9208
1373523392854,58.0804
1373523452854,58.0644
1373523512854,58.0135
1373523572854,58.0190
1373523632854,58.3356
1373523692854,58.0819
1373523752854,58.1231
1373523812854,58.0094
1373523872854,57.9233
1373523932854,58.0737
1373523992854,58.1141
1373524052854,57.9889
1373524112854,58.2010
1373524172854,57.9681
1373524232854,57.8590
1373524292854,58.0068
1373524352854,58.0308
1373524412854,57.9373
1373524472854,57.9202
1373524532854,57.9508
1373524592854,58.0753
1373524652854,58.0025
1373524712854,57.8867
1373524772854,58.0490
1373524832854,57.9366
1373524892854,57.9450
1373524952854,57.9032
1373525012854,58.0115
1373525072854,57.8140
1373525132854,58.0434
1373525192854,57.8966
1373525252854,57.9608
1373525312854,57.9223
1373525372854,58.1986
1373525432854,58.1132
1373525492854,57.9440
1373525552854,58.0783
1373525612854,57.9628
1373525672854,58.0495
1373525732854,58.1286
1373525792854,58.1719
1373525852854,58.0296
1373525912854,57.9254
1373525972854,58.0826
1373526032863,58.2059
1373526092863,57.9226
1373526152863,58.0868
1373526212863,58.0525
1373526272863,58.0039
1373526332863,58.0502
1373526392863,58.0655
1373526452863,58.0075
1373526512863,57.9600
1373526572863,57.9657
1373526632863,58.1905
1373526692863,53.2591
1373527232863,57.9789
1373527292863,54.6234
1373527352863,57.9120
1373527412863,58.1495
1373527472863,58.2575
1373527532863,57.9738
1373527592863,58.2138
1373527652863,57.9782
1373527712863,58.0790
1373527772863,57.9970
1373527832863,58.2364
1373527892863,58.0593
1373527952863,58.2424
1373528012863,58.1123
1373528072863,58.1279
1373528132863,57.7876
1373528192863,58.0141
1373528252863,58.1103
1373528312863,58.0415
1373528372863,58.0298
1373528432863,58.3236
1373528492863,58.2494
1373528552863,58.0691
1373528612863,58.0807
1373528672863,58.0846
1373528732863,58.1413
1373528792863,58.1886
1373528852863,58.2299
1373528912863,58.2516
1373528972863,58.1093
1373529032863,58.2842
1373529092863,58.4965
1373529152863,58.2139
1373529212863,58.2416
1373529272863,58.2470
1373529332863,58.4614
1373529392863,58.4102
1373529452863,58.4649
1373529512863,58.3428
1373529572863,58.3673
1373529632872,58.4990
1373529692872,58.4257
1373529752872,58.4506
1373529812872,58.3803
1373529872872,58.4730
1373529932872,58.2968
1373529992872,58.3624
1373530052872,58.2566
1373530112872,58.3615
1373530172872,58.4716
1373530232872,58.5159
1373530292872,58.3369
1373530352872,58.6091
1373530412872,58.6607
1373530472872,58.4706
1373530532872,58.3955
1373530592872,58.7420
1373530652872,58.5524
1373530712872,58.5363
1373530772872,58.4433
1373530832872,58.5598
1373530892872,58.5593
1373530952872,58.5621
1373531012872,58.5218
1373531072872,58.6352
1373531132872,58.5614
1373531192872,58.4775
1373531252872,58.3979
1373531312872,58.6787
1373531372872,58.5029
1373531432872,58.5779
1373531492872,58.6149
1373531552872,58.6589
1373531612872,58.4501
1373531672872,58.5387
1373531732872,58.5393
1373531792872,58.5859
1373531852872,58.5917
1373531912872,58.5261
1373531972872,58.4633
1373532032872,58.6775
1373532092872,58.6023
1373532152872,58.5007
1373532212872,58.4827
1373532272872,58.5325
1373532332872,58.3548
1373532392872,58.5789
1373532452872,58.5135
1373532512872,58.5162
1373532572872,58.5682
1373532632872,58.7102
1373532692872,58.4556
1373532752872,58.5846
1373532812872,58.7341
1373532872872,58.6285
1373532932872,58.6232
1373532992872,58.6739
1373533052872,58.6345
1373533112872,58.5775
1373533172872,58.4481
1373533232881,58.6687
1373533292881,58.5761
1373533352881,58.5159
1373533412881,58.6674
1373533472881,58.5732
1373533532881,58.5897
1373533592881,58.6694
1373533652881,58.5497
1373533712881,58.5486
1373533772881,58.7042
1373533832881,58.7183
1373533892881,58.7180
1373533952881,58.7655
1373534012881,58.7966
1373534072881,58.8149
1373534132881,58.7988
1373534192881,58.5544
1373534252881,58.7323
1373534312881,58.6574
1373534372881,58.6825
1373534432881,58.6497
1373534492881,58.6845
1373534552881,58.7365
1373534612881,58.7170
1373534672881,58.7797
1373534732881,58.7343
1373534792881,58.5970
1373534852881,58.6953
1373534912881,58.6420
1373534972881,58.7934
1373535032881,58.7198
1373535092881,58.7432
1373535152881,58.5791
1373535212881,58.5687
1373535272881,58.8298
1373535332881,58.7340
1373535392881,58.8027
1373535452881,58.9668
1373535512881,59.0355
1373535572881,58.8130
1373535632881,58.8650
1373535692881,58.8491
1373535752881,58.7714
1373535812881,58.8333
1373535872881,58.7949
1373535932881,58.7159
1373535992881,58.8002
1373536052881,58.6775
1373536112881,58.6587
1373536172881,58.6138
1373536232881,58.7953
1373536292881,58.8529
1373536352881,58.8196
1373536412881,58.8892
1373536472881,58.9507
1373536532881,58.7442
1373536592881,58.9146
1373536652881,58.6273
1373536712881,58.8030
1373536772881,58.7331
1373536832891,58.7874
1373536892891,58.9987
1373536952891,58.6509
1373537012891,58.7637
1373537072891,58.7414
1373537132891,58.6005
1373537192891,58.6833
1373537252891,58.8248
1373537312891,58.8391
1373537372891,58.6702
1373537432891,58.6419
1373537492891,58.8097
1373537552891,58.7469
1373537612891,58.7393
1373537672891,58.7632
1373537732891,58.8038
1373537792891,58.7635
1373537852891,58.7284
1373537912891,58.8383
1373537972891,58.8100
1373538032891,58.8426
1373538092891,58.7376
1373538152891,58.7486
1373538212891,58.9930
1373538272891,58.7695
1373538332891,58.6806
1373538392891,58.6769
1373538452891,58.9242
1373538512891,58.8949
1373538572891,58.8778
1373538632891,58.9023
1373538692891,58.8603
1373538752891,59.0066
1373538812891,58.7488
1373538872891,58.7742
1373538932891,58.6845
1373538992891,58.8735
1373539052891,58.9384
1373539112891,58.9195
1373539172891,58.7765
1373539232891,58.9829
1373539292891,58.8040
1373539352891,58.8075
1373539412891,58.6559
1373539472891,58.9019
1373539532891,59.0123
1373539592891,58.9069
1373539652891,58.8974
1373539712891,58.9030
1373539772891,58.8928
1373539832891,58.9476
1373539892891,59.1141
1373539952891,59.0321
1373540012891,59.0279
1373540072891,58.7720
1373540132891,58.8650
1373540192891,58.8658
1373540252891,58.9666
1373540312891,58.9248
1373540372891,58.8793
1373540432900,58.9017
1373540492900,59.0302
1373540552900,58.8661
1373540612900,58.8310
1373540672900,58.7899
1373540732900,59.0233
1373540792900,58.7180
1373540852900,58.9268
1373540912900,58.8999
1373540972900,58.9156
1373541032900,58.8604
1373541092900,58.7276
1373541152900,59.0313
1373541212900,58.9510
1373541272900,58.8980
1373541332900,58.6539
1373541392900,58.8905
1373541452900,59.0035
1373541512900,58.8403
1373541572900,58.8613
1373541632900,59.0861
1373541692900,58.8795
1373541752900,58.8368
1373541812900,59.1065
1373541872900,59.0269
1373541932900,58.8967
1373541992900,58.8436
1373542052900,58.9449
1373542112900,59.0261
1373542172900,58.9286
1373542232900,59.0867
1373542292900,58.9654
1373542352900,59.0697
1373542412900,58.9760
1373542472900,59.1385
1373542532900,58.9993
1373542592900,59.0397
1373542652900,59.1498
1373542712900,59.2309
1373542772900,59.2813
1373542832900,59.1833
1373542892900,59.0862
1373542952900,58.8512
1373543012900,59.1807
1373543072900,59.0383
1373543132900,58.9072
1373543192900,59.0789
1373543252900,59.0551
1373543312900,59.0597
1373543372900,59.2549
1373543432900,59.0769
1373543492900,58.8960
1373543552900,59.3438
1373543612900,59.1653
1373543672900,59.0840
1373543732900,59.1763
1373543792900,58.9445
1373543852900,59.0195
1373543912900,59.0322
1373543972900,59.1130
1373544032909,59.0578
1373544092909,59.0482
1373544152909,59.1188
1373544212909,58.9266
1373544272909,58.9802
1373544332909,59.1072
1373544392909,59.2587
1373544452909,59.1596
1373544512909,59.0697
1373544572909,59.0065
1373544632909,59.2350
1373544692909,59.1488
1373544752909,58.9540
1373544812909,59.2764
1373544872909,59.1616
1373544932909,59.3872
1373544992909,59.2772
1373545052909,59.3376
1373545112909,59.3380
1373545172909,59.1599
1373545232909,59.3942
1373545292909,59.2425
1373545352909,59.1975
1373545412909,59.4323
1373545472909,59.2304
1373545532909,59.1130
1373545592909,59.5555
1373545652909,59.1070
1373545712909,59.2079
1373545772909,59.0112
1373545832909,59.2950
1373545892909,59.1670
1373545952909,59.3791
1373546012909,59.0924
1373546072909,59.1044
1373546132909,59.2790
1373546192909,59.1704
1373546252909,59.1876
1373546312909,59.2239
1373546372909,59.2179
1373546432909,59.4068
1373546492909,59.3292
1373546552909,59.2920
1373546612909,59.3778
1373546672909,59.1668
1373546732909,59.1455
1373546792909,59.1294
1373546852909,59.2972
1373546912909,59.2363
1373546972909,59.2760
1373547032909,59.2931
1373547092909,59.0346
1373547152909,59.3886
1373547212909,59.1396
1373547272909,59.3204
1373547332909,59.2689
1373547392909,59.3062
1373547452909,59.3694
1373547512909,59.0786
1373547572909,59.1452
1373547632918,59.2713
1373547692918,59.2938
1373547752918,59.1109
1373547812918,59.2268
1373547872918,59.1987
1373547932918,59.1945
1373547992918,59.2265
1373548052918,59.2526
1373548112918,59.1602
1373548172918,59.1774
1373548232918,59.1079
1373548292918,59.1471
1373548352918,59.1651
1373548412918,59.0880
1373548472918,59.2433
1373548532918,59.2525
1373548592918,59.0706
1373548652918,59.0516
1373548712918,59.1365
1373548772918,59.2514
1373548832918,59.3367
1373548892918,59.2771
1373548952918,59.1635
1373549012918,59.2301
1373549072918,59.3244
1373549132918,59.2949
1373549192918,59.3043
1373549252918,59.0813
1373549312918,59.2828
1373549372918,59.3987
1373549432918,59.1718
1373549492918,59.1646
1373549552918,59.1884
1373549612918,59.2873
1373549672918,59.3437
1373549732918,59.5203
1373549792918,59.4661
1373549852918,59.2599
1373549912918,59.3274
1373549972918,59.3477
1373550032918,59.3854
1373550092918,59.2051
1373550152918,59.3403
1373550212918,59.3028
1373550272918,59.3614
1373550332918,59.2258
1373550392918,59.1436
1373550452918,59.2294
1373550512918,59.3284
1373550572918,59.2310
1373550632918,59.4228
1373550692918,59.4412
1373550752918,59.3150
1373550812918,59.3885
1373550872918,59.4260
1373550932918,59.5056
1373550992918,59.3465
1373551052918,59.3117
1373551112918,59.3845
1373551172918,59.2076
1373551232927,59.3272
1373551292927,59.4095
1373551352927,59.3350
1373551412927,59.2332
1373551472927,59.3565
1373551532927,59.1820
1373551592927,59.3711
1373551652927,59.3999
1373551712927,59.6421
1373551772927,59.0941
1373551832927,59.4557
1373551892927,59.4276
1373551952927,59.4296
1373552012927,59.4931
1373552072927,59.4870
1373552132927,59.4413
1373552192927,59.3339
1373552252927,59.4322
1373552312927,59.3848
1373552372927,59.4424
1373552432927,59.4102
1373552492927,59.3683
1373552552927,59.4084
1373552612927,59.5809
1373552672927,59.4660
1373552732927,59.4938
1373552792927,59.3090
1373552852927,59.3795
1373552912927,59.4243
1373552972927,59.3263
1373553032927,59.4345
1373553092927,59.2175
1373553152927,59.5161
1373553212927,59.4610
1373553272927,59.5075
1373553332927,59.5567
1373553392927,59.2970
1373553452927,59.5397
1373553512927,59.4529
1373553572927,59.3239
1373553632927,59.4772
1373553692927,59.4130
1373553752927,59.4578
1373553812927,59.3893
1373553872927,59.5001
1373553932927,59.4934
1373553992927,59.2520
1373554052927,59.3003
1373554112927,59.4234
1373554172927,59.4056
1373554232927,59.4358
1373554292927,59.3272
1373554352927,59.4535
1373554412927,59.3595
1373554472927,59.4810
1373554532927,59.4885
1373554592927,59.4012
1373554652927,59.4133
1373554712927,59.5671
1373554772927,59.2549
1373554832936,59.4166
1373554892936,59.3516
1373554952936,59.4799
1373555012936,59.4505
1373555072936,59.5250
1373555132936,59.5034
1373555192936,59.4563
1373555252936,59.5580
1373555312936,59.3789
1373555372936,59.4380
1373555432936,59.4531
1373555492936,59.4476
1373555552936,59.3170
1373555612936,59.4292
1373555672936,59.3020
1373555732936,59.4078
1373555792936,59.3270
1373555852936,59.5125
1373555912936,59.4975
1373555972936,59.3712
1373556032936,59.3078
1373556092936,59.4518
1373556152936,59.4734
1373556212936,59.4658
1373556272936,59.4613
1373556332936,59.5155
1373556392936,59.5187
1373556452936,59.5994
1373556512936,59.3500
1373556572936,59.5004
1373556632936,59.4688
1373556692936,59.4604
1373556752936,59.4948
1373556812936,59.4341
1373556872936,59.3881
1373556932936,59.4113
1373556992936,59.4726
1373557052936,59.4250
1373557112936,59.5242
1373557172936,59.5463
1373557232936,59.4971
1373557292936,59.6506
1373557352936,59.4998
1373557412936,59.3680
1373557472936,59.4448
1373557532936,59.4024
1373557592936,59.4383
1373557652936,59.4048
1373557712936,59.6792
1373557772936,59.3883
1373557832936,59.4066
1373557892936,59.5655
1373557952936,59.4072
1373558012936,59.4363
1373558072936,59.5342
1373558132936,59.4814
1373558192936,59.2970
1373558252936,59.3369
1373558312936,59.4633
1373558372936,59.5871
1373558432946,59.4786
1373558492946,59.5490
1373558552946,59.4904
1373558612946,59.5200
1373558672946,59.4222
1373558732946,59.2858
1373558792946,59.3128
1373558852946,59.2937
1373558912946,59.4768
1373558972946,59.3975
1373559032946,59.5015
1373559092946,59.5025
1373559152946,59.3837
1373559212946,59.3781
1373559272946,59.5278
1373559332946,59.3954
1373559392946,59.1327
1373559452946,59.3300
1373559512946,59.4427
1373559572946,59.3694
1373559632946,59.4334
1373559692946,59.2608
1373559752946,59.3636
1373559812946,59.3746
1373559872946,59.5140
1373559932946,59.5635
1373559992946,59.4087
1373560052946,59.4014
1373560112946,59.4776
1373560172946,59.1814
1373560232946,59.4494
1373560292946,59.3804
1373560352946,59.2965
1373560412946,59.4238
1373560472946,59.4533
1373560532946,59.3821
1373560592946,59.3632
1373560652946,59.4232
1373560712946,59.4505
1373560772946,59.3465
1373560832946,59.2971
1373560892946,59.1776
1373560952946,59.4082
1373561012946,59.4285
1373561072946,59.4170
1373561132946,59.2587
1373561192946,59.1816
1373561252946,59.5757
1373561312946,59.3511
1373561372946,59.3469
1373561432946,59.3000
1373561492946,59.2174
1373561552946,59.4570
1373561612946,59.2293
1373561672946,59.3865
1373561732946,59.2503
1373561792946,59.2096
1373561852946,59.2003
1373561912946,59.1799
1373561972946,59.4483
1373562032956,59.3031
1373562092956,59.4492
1373562152956,59.2049
1373562212956,59.3989
1373562272956,59.3029
1373562332956,59.3489
1373562392956,59.4296
1373562452956,59.5338
1373562512956,59.4063
1373562572956,59.3356
1373562632956,59.5083
1373562692956,59.4236
1373562752956,59.3200
1373562812956,59.5795
1373562872956,59.2854
1373562932956,59.4646
1373562992956,59.2680
1373563052956,59.4201
1373563112956,59.3216
1373563172956,59.3714
1373563232956,59.3408
1373563292956,59.3210
1373563352956,59.0910
1373563412956,59.2521
1373563472956,59.2218
1373563532956,59.4213
1373563592956,59.3729
1373563652956,59.1413
1373563712956,59.1185
1373563772956,59.2861
1373563832956,59.4410
1373563892956,59.3011
1373563952956,59.4596
1373564012956,59.5262
1373564072956,59.4731
1373564132956,59.4217
1373564192956,59.4394
1373564252956,59.6000
1373564312956,59.5128
1373564372956,59.4898
1373564432956,59.6800
1373564492956,59.6114
1373564552956,59.5149
1373564612956,59.6723
1373564672956,59.6235
1373564732956,59.5453
1373564792956,59.4650
1373564852956,59.4723
1373564912956,59.5586
1373564972956,59.4138
1373565032956,59.5555
1373565092956,59.6130
1373565152956,59.4226
1373565212956,59.6494
1373565272956,59.5528
1373565332956,59.6089
1373565392956,59.4799
1373565452956,59.7045
1373565512956,59.5752
1373565572956,59.7374
1373565632966,59.6201
1373565692966,59.6708
1373565752966,59.5502
1373565812966,59.4104
1373565872966,59.6623
1373565932966,59.4321
1373565992966,59.7533
1373566052966,59.8254
1373566112966,59.6723
1373566172966,59.8631
1373566232966,59.7778
1373566292966,59.6244
1373566352966,59.7673
1373566412966,59.7004
1373566472966,59.9328
1373566532966,59.8645
1373566592966,59.9144
1373566652966,60.0842